| time (UTC) | temp F | wind direction | speed knots | gust knots | rain 1hr in | rain 24hr in | rain mn in | humidity % | barometer mb |
| 20260504140632 | 61 | 149 | 1.7 | 1.7 | 0.00 | 0.00 | 0.00 | 49 | 1013.9 |
| 20260504130620 | 56 | 183 | 0.9 | 1.7 | 0.00 | 0.00 | 0.00 | 51 | 1014.2 |
| 20260504110600 | 40 | 107 | 0.9 | 0.9 | 0.00 | 0.00 | 0.00 | 86 | 1014.5 |
| 20260504100545 | 35 | 105 | 0.0 | 0.0 | 0.00 | 0.00 | 0.00 | 91 | 1014.4 |
| 20260504081517 | 38 | 125 | 0.0 | 0.9 | 0.00 | 0.00 | 0.00 | 82 | 1014.2 |
| 20260504080515 | 38 | 134 | 0.9 | 0.9 | 0.00 | 0.00 | 0.00 | 82 | 1014.5 |
| 20260504050438 | 41 | 115 | 0.0 | 0.0 | 0.00 | 0.00 | 0.00 | 75 | 1014.2 |
| 20260504045437 | 41 | 116 | 0.0 | 0.9 | 0.00 | 0.00 | 0.00 | 73 | 1014.3 |
| 20260504044437 | 41 | 130 | 0.0 | 0.0 | 0.00 | 0.00 | 0.00 | 74 | 1014.2 |
| 20260504043437 | 41 | 130 | 0.0 | 0.0 | 0.00 | 0.00 | 0.00 | 74 | 1014.2 |
| 20260504042436 | 41 | 150 | 0.0 | 0.9 | 0.00 | 0.00 | 0.00 | 70 | 1014.2 |
| 20260504041435 | 42 | 101 | 0.0 | 0.0 | 0.00 | 0.00 | 0.00 | 73 | 1014.0 |
| 20260504040435 | 42 | 102 | 0.9 | 0.9 | 0.00 | 0.00 | 0.00 | 72 | 1013.9 |
| 20260504035434 | 42 | 102 | 0.9 | 0.9 | 0.00 | 0.00 | 0.00 | 71 | 1013.8 |
| 20260504034434 | 42 | 109 | 0.0 | 0.0 | 0.00 | 0.00 | 0.00 | 68 | 1013.8 |
| 20260504033434 | 42 | 109 | 0.0 | 0.0 | 0.00 | 0.00 | 0.00 | 69 | 1013.7 |
| 20260504032434 | 42 | 109 | 0.0 | 0.0 | 0.00 | 0.00 | 0.00 | 70 | 1013.6 |
| 20260504031433 | 43 | 109 | 0.0 | 0.0 | 0.00 | 0.00 | 0.00 | 67 | 1013.5 |
| 20260504030432 | 44 | 109 | 0.0 | 0.0 | 0.00 | 0.00 | 0.00 | 65 | 1013.3 |
| 20260504025431 | 44 | 109 | 0.0 | 0.0 | 0.00 | 0.00 | 0.00 | 62 | 1013.6 |
| 20260504024431 | 45 | 109 | 0.0 | 0.0 | 0.00 | 0.00 | 0.00 | 60 | 1013.5 |
| 20260504023430 | 45 | 107 | 0.9 | 0.9 | 0.00 | 0.00 | 0.00 | 59 | 1013.5 |
| 20260504022428 | 47 | 109 | 0.0 | 0.0 | 0.00 | 0.00 | 0.00 | 57 | 1013.5 |
| 20260504021428 | 48 | 108 | 0.9 | 0.9 | 0.00 | 0.00 | 0.00 | 54 | 1013.6 |
| 20260504020428 | 48 | 113 | 0.0 | 0.0 | 0.00 | 0.00 | 0.00 | 54 | 1013.5 |
| 20260504015426 | 48 | 112 | 0.9 | 0.9 | 0.00 | 0.00 | 0.00 | 53 | 1013.4 |
| 20260504014425 | 49 | 112 | 0.0 | 0.0 | 0.00 | 0.00 | 0.00 | 52 | 1013.2 |
| 20260504013420 | 49 | 119 | 0.0 | 0.0 | 0.00 | 0.00 | 0.00 | 52 | 1013.4 |
| 20260504012420 | 49 | 156 | 0.0 | 0.0 | 0.00 | 0.00 | 0.00 | 52 | 1013.1 |
| 20260504011418 | 49 | 156 | 0.0 | 0.0 | 0.00 | 0.00 | 0.00 | 52 | 1013.2 |
| 20260504010416 | 49 | 157 | 0.0 | 0.0 | 0.00 | 0.00 | 0.00 | 52 | 1013.1 |
| 20260504005415 | 50 | 178 | 0.0 | 0.0 | 0.00 | 0.00 | 0.00 | 50 | 1012.9 |
| 20260504004410 | 52 | 154 | 0.0 | 0.0 | 0.00 | 0.00 | 0.00 | 47 | 1012.9 |
| 20260504003409 | 52 | 163 | 0.0 | 0.9 | 0.00 | 0.00 | 0.00 | 46 | 1012.6 |
| 20260504002409 | 53 | 186 | 0.0 | 0.0 | 0.00 | 0.00 | 0.00 | 45 | 1012.5 |
| 20260504001404 | 53 | 132 | 0.0 | 0.0 | 0.00 | 0.00 | 0.00 | 45 | 1012.7 |
| 20260504000403 | 53 | 40 | 0.9 | 1.7 | 0.00 | 0.00 | 0.00 | 44 | 1012.4 |
| 20260503235358 | 54 | 234 | 1.7 | 1.7 | 0.00 | 0.00 | 0.00 | 44 | 1012.5 |
| 20260503234353 | 54 | 197 | 0.9 | 0.9 | 0.00 | 0.00 | 0.00 | 43 | 1012.1 |
| 20260503233353 | 55 | 133 | 0.9 | 1.7 | 0.00 | 0.00 | 0.00 | 43 | 1011.9 |
| 20260503232352 | 55 | 184 | 0.0 | 0.9 | 0.00 | 0.00 | 0.00 | 41 | 1011.9 |
| 20260503231347 | 56 | 228 | 2.6 | 4.3 | 0.00 | 0.00 | 0.00 | 42 | 1012.0 |
| 20260503230346 | 56 | 120 | 0.0 | 0.9 | 0.00 | 0.00 | 0.00 | 41 | 1011.8 |
| 20260503225345 | 56 | 38 | 2.6 | 2.6 | 0.00 | 0.00 | 0.00 | 40 | 1011.5 |
| 20260503224345 | 56 | 81 | 0.9 | 1.7 | 0.00 | 0.00 | 0.00 | 41 | 1011.9 |
| 20260503223340 | 57 | 256 | 1.7 | 1.7 | 0.00 | 0.00 | 0.00 | 39 | 1011.8 |
| 20260503222340 | 57 | 219 | 1.7 | 1.7 | 0.00 | 0.00 | 0.00 | 41 | 1011.9 |
| 20260503221336 | 57 | 264 | 6.1 | 7.0 | 0.00 | 0.00 | 0.00 | 39 | 1011.7 |
| 20260503220335 | 57 | 116 | 0.0 | 0.9 | 0.00 | 0.00 | 0.00 | 40 | 1011.6 |
| 20260503215335 | 56 | 82 | 0.9 | 0.9 | 0.00 | 0.00 | 0.00 | 39 | 1011.7 |
| 20260503214335 | 57 | 34 | 0.0 | 0.9 | 0.00 | 0.00 | 0.00 | 37 | 1011.8 |
| 20260503213330 | 58 | 258 | 1.7 | 1.7 | 0.00 | 0.00 | 0.00 | 36 | 1011.6 |
| 20260503212325 | 58 | 337 | 2.6 | 5.2 | 0.00 | 0.00 | 0.00 | 37 | 1011.5 |
| 20260503211325 | 58 | 110 | 2.6 | 2.6 | 0.00 | 0.00 | 0.00 | 37 | 1011.5 |
| 20260503210322 | 59 | 25 | 5.2 | 7.8 | 0.00 | 0.00 | 0.00 | 34 | 1011.5 |
| 20260503205320 | 59 | 193 | 0.9 | 0.9 | 0.00 | 0.00 | 0.00 | 35 | 1011.3 |
| 20260503204320 | 59 | 254 | 3.5 | 5.2 | 0.00 | 0.00 | 0.00 | 33 | 1011.4 |
| 20260503203320 | 58 | 280 | 3.5 | 5.2 | 0.00 | 0.00 | 0.00 | 34 | 1011.6 |
| 20260503202315 | 59 | 83 | 0.0 | 0.9 | 0.00 | 0.00 | 0.00 | 36 | 1011.5 |
| 20260503201315 | 58 | 5 | 2.6 | 4.3 | 0.00 | 0.00 | 0.00 | 35 | 1011.6 |
| 20260503200315 | 58 | 6 | 3.5 | 5.2 | 0.00 | 0.00 | 0.00 | 35 | 1011.8 |
| 20260503195315 | 58 | 187 | 0.9 | 0.9 | 0.00 | 0.00 | 0.00 | 35 | 1011.9 |
| 20260503194314 | 57 | 282 | 6.1 | 7.0 | 0.00 | 0.00 | 0.00 | 35 | 1012.1 |
| 20260503193312 | 58 | 131 | 0.9 | 0.9 | 0.00 | 0.00 | 0.00 | 37 | 1012.3 |
| 20260503192309 | 57 | 111 | 0.9 | 1.7 | 0.00 | 0.00 | 0.00 | 39 | 1012.6 |
| 20260503191309 | 58 | 93 | 2.6 | 2.6 | 0.00 | 0.00 | 0.00 | 37 | 1012.7 |
| 20260503190308 | 58 | 141 | 1.7 | 2.6 | 0.00 | 0.00 | 0.00 | 40 | 1012.7 |
| 20260503185307 | 57 | 121 | 1.7 | 1.7 | 0.00 | 0.00 | 0.00 | 37 | 1012.7 |
| 20260503184304 | 55 | 296 | 2.6 | 4.3 | 0.00 | 0.00 | 0.00 | 40 | 1012.8 |
| 20260503183303 | 54 | 266 | 6.1 | 7.8 | 0.00 | 0.00 | 0.00 | 37 | 1013.0 |
| 20260503182259 | 55 | 341 | 7.0 | 9.6 | 0.00 | 0.00 | 0.00 | 38 | 1013.1 |
| 20260503181259 | 53 | 333 | 4.3 | 7.0 | 0.00 | 0.00 | 0.00 | 40 | 1013.0 |
| 20260503180259 | 54 | 1 | 1.7 | 2.6 | 0.00 | 0.00 | 0.00 | 41 | 1013.0 |
| 20260503175254 | 54 | 306 | 7.0 | 7.8 | 0.00 | 0.00 | 0.00 | 38 | 1013.0 |
| 20260503174253 | 53 | 292 | 2.6 | 5.2 | 0.00 | 0.00 | 0.00 | 39 | 1013.2 |
| 20260503173249 | 53 | 338 | 0.9 | 0.9 | 0.00 | 0.00 | 0.00 | 39 | 1013.2 |
| 20260503172249 | 55 | 320 | 0.9 | 1.7 | 0.00 | 0.00 | 0.00 | 40 | 1013.4 |
| 20260503171249 | 52 | 338 | 2.6 | 2.6 | 0.00 | 0.00 | 0.00 | 41 | 1013.4 |
| 20260503170248 | 52 | 146 | 0.9 | 0.9 | 0.00 | 0.00 | 0.00 | 41 | 1013.4 |
| 20260503150222 | 49 | 221 | 2.6 | 4.3 | 0.00 | 0.00 | 0.00 | 50 | 1014.4 |